Fort Leonard Wood, MO

5:07 AM CST on January 20, 2018 (GMT -0600)
Waynesville Regional At Forney Field

Weather History for KTBN - April, 2014

Change the Weather History Date:

Saturday, April 5, 2014

  Actual Average Record
Temperature  
Mean Temperature 46 °F -  
Max Temperature 58 °F 63 °F 80 °F (2001)
Min Temperature 35 °F 45 °F 28 °F (2002)
Degree Days  
Heating Degree Days 18    
Moisture  
Dew Point 29 °F    
Average Humidity 53    
Maximum Humidity 81    
Minimum Humidity 29    
Precipitation  
Precipitation 0.00 in - - ()
Sea Level Pressure  
Sea Level Pressure 30.16 in    
Wind  
Wind Speed 5 mph (NE)    
Max Wind Speed 8 mph    
Max Gust Speed -    
Visibility 10 miles    
Events      
Averages and records for this station are not official NWS values.
T = Trace of Precipitation, MM = Missing Value Source: NWS Daily Summary

Daily Weather History Graph

Daily Weather History Graph

Search for Another Location

Airport or City:

Trip Planner

Search our weather history database for the weather conditions in past years. The results will help you decide how hot, cold, wet, or windy it might be!

Date:

Astronomy

Apr. 05, 2014 Rise Set
Actual Time 6:47 AM CDT 7:35 PM CDT
Civil Twilight 6:21 AM CDT 8:01 PM CDT
Nautical Twilight 5:49 AM CDT 8:33 PM CDT
Astronomical Twilight 5:17 AM CDT 9:05 PM CDT
Moon 10:59 AM CDT (4/5) 12:41 AM CDT (4/5)
Length of Visible Light 13h 40m
Length of Day
12h 47m
Waxing Crescent, 34% of the Moon is Illuminated
Apr 5
Waxing Crescent
Apr 7
First Quarter
Apr 15
Full
Apr 22
Last Quarter
Apr 29
New

Hourly Weather History & Observations

Time (CDT) Temp. Windchill Dew Point Humidity Pressure Visibility Wind Dir Wind Speed Gust Speed Precip Events Conditions
12:58 AM 39.6 °F 35.4 °F 29.5 °F 67% 30.19 in 10.0 mi NNW 5.8 mph - N/A   Overcast
1:58 AM 39.6 °F 34.7 °F 29.5 °F 67% 30.19 in 10.0 mi NNW 6.9 mph - N/A   Overcast
2:58 AM 39.6 °F 34.0 °F 29.7 °F 68% 30.20 in 10.0 mi North 8.1 mph - N/A   Overcast
3:58 AM 37.2 °F 33.6 °F 28.0 °F 69% 30.20 in 10.0 mi NNW 4.6 mph - N/A   Mostly Cloudy
4:58 AM 36.3 °F 33.7 °F 27.3 °F 70% 30.19 in 10.0 mi NNW 3.5 mph - N/A   Partly Cloudy
5:58 AM 35.2 °F - 27.0 °F 72% 30.18 in 10.0 mi Calm Calm - N/A   Clear
6:58 AM 35.1 °F - 27.7 °F 74% 30.19 in 10.0 mi ENE 2.3 mph - N/A   Clear
7:58 AM 36.0 °F - 30.7 °F 81% 30.22 in 10.0 mi SE 2.3 mph - N/A   Clear
8:58 AM 40.8 °F 37.8 °F 29.8 °F 65% 30.23 in 10.0 mi East 4.6 mph - N/A   Clear
9:58 AM 42.1 °F 40.2 °F 29.3 °F 61% 30.24 in 10.0 mi Variable 3.5 mph - N/A   Clear
10:58 AM 45.1 °F - 31.5 °F 59% 30.24 in 10.0 mi Calm Calm - N/A   Clear
11:58 AM 47.8 °F - 31.5 °F 53% 30.22 in 10.0 mi NE 8.1 mph - N/A   Clear
12:58 PM 49.8 °F - 29.5 °F 46% 30.20 in 10.0 mi North 6.9 mph - N/A   Clear
1:58 PM 52.9 °F - 31.3 °F 44% 30.18 in 10.0 mi West 3.5 mph - N/A   Clear
2:58 PM 55.2 °F - 29.5 °F 37% 30.15 in 10.0 mi East 6.9 mph - N/A   Clear
3:58 PM 57.6 °F - 27.0 °F 31% 30.12 in 10.0 mi Variable 1.2 mph - N/A   Clear
4:58 PM 57.6 °F - 26.2 °F 30% 30.10 in 10.0 mi Variable 5.8 mph - N/A   Clear
5:58 PM 58.1 °F - 26.1 °F 29% 30.09 in 10.0 mi NE 3.5 mph - N/A   Clear
6:58 PM 56.7 °F - 26.6 °F 32% 30.08 in 10.0 mi East 6.9 mph - N/A   Clear
7:58 PM 52.5 °F - 27.7 °F 38% 30.09 in 10.0 mi East 4.6 mph - N/A   Clear
8:58 PM 52.9 °F - 25.5 °F 35% 30.10 in 10.0 mi ENE 3.5 mph - N/A   Clear
9:58 PM 50.5 °F - 26.8 °F 40% 30.10 in 10.0 mi NE 3.5 mph - N/A   Clear
10:58 PM 47.8 °F - 28.2 °F 47% 30.10 in 10.0 mi East 3.5 mph - N/A   Partly Cloudy
11:58 PM 45.5 °F 41.3 °F 32.0 °F 59% 30.09 in 10.0 mi SE 8.1 mph - N/A   Overcast